Location: Dallas
(32.7833°N, 96.8000°W)
Time: 10:05:34
(UTC-05:00)

X-37B - Visible Passes

Search period start: 29 September 2022 00:00
Search period end: 09 October 2022 00:00
Orbit: 330 x 340 km, 45.0° (Epoch: 02 September)

Date Brightness Start Highest point End Pass type
(mag) Time Alt. Az. Time Alt. Az. Time Alt. Az.
02 Oct 3.2 06:27:33 10° N 06:28:47 12° NNE 06:30:01 10° NE visible
03 Oct 2.5 06:47:12 10° NNW 06:49:33 22° NNE 06:51:53 10° E visible
04 Oct 3.4 05:34:27 12° NNE 05:34:27 12° NNE 05:35:25 10° NE visible
05 Oct 2.4 05:54:20 20° N 05:54:58 22° NNE 05:57:17 10° E visible
06 Oct 0.7 06:14:21 29° NW 06:15:32 58° NNE 06:18:23 10° ESE visible
07 Oct 1.1 06:34:30 21° W 06:35:56 36° SW 06:38:35 10° SSE visible
08 Oct 3.7 05:23:30 12° ESE 05:23:30 12° ESE 05:23:48 10° ESE visible
08 Oct 2.7 06:55:22 10° WSW 06:56:08 11° SW 06:56:54 10° SSW visible
